Location: Harburg
(48.7667°N, 10.6667°E)
Time: 05:24:53
(UTC+00:00)

Cosmos 2151 Rocket - Pass Details

Date: 18 September 2020
Orbit: 618 x 642 km, 82.5° (Epoch: 27 October)

Event Time Altitude Azimuth Distance (km) Brightness Sun altitude
Rises 18:44:22 0° 173° (S) 2,901 6.7 -14.0°
Reaches altitude 10° 18:46:37 10° 168° (SSE) 2,003 5.9 -14.3°
Maximum altitude 18:50:54 49° 94° (E) 819 3.8 -15.0°
Drops below altitude 10° 18:55:15 10° 20° (NNE) 2,034 6.2 -15.6°
Sets 18:57:33 0° 15° (NNE) 2,951 7.1 -16.0°
